Latest Weather Observations for Rhyll

IDV60801

Issued at 10:31 pm EST Tuesday 3 May 2016 (issued every 30 minutes, with the page automatically refreshed every 10 minutes)

About weather observations | Map of weather stations | Latest weather observations for VIC | Other Formats
Station Details ID: 086373 Name: RHYLL Lat: -38.46 Lon: 145.31 Height: 13.4 m
Data from the previous 72 hours. | See also: Recent months at Rhyll
Date/Time
EST
Temp
°C
App
Temp
°C
Dew
Point
Rel
Hum
%
Delta-T
°C
Wind Press
QNH
hPa
Press
MSL
hPa
Rain
since 9 am
mm
Dir
 
Spd
km/h
Gust
km/h
Spd
kts
Gust
kts
03/10:30pm 13.2 10.5 7.2 67 2.9 WNW 11 24 6 13 1007.1 1007.1 6.2
03/10:00pm 13.4 9.9 7.0 65 3.1 WNW 15 28 8 15 1007.0 1007.0 6.2
03/09:30pm 13.4 10.3 7.4 67 2.9 WNW 13 28 7 15 1006.6 1006.6 6.2
03/09:00pm 13.3 9.4 7.1 66 3.0 W 17 30 9 16 1006.3 1006.3 6.2
03/08:30pm 13.1 9.6 7.3 68 2.8 WNW 15 28 8 15 1005.9 1005.9 6.2
03/08:00pm 13.0 9.5 7.2 68 2.8 W 15 30 8 16 1005.6 1005.6 6.2
03/07:30pm 13.4 9.1 7.2 66 3.0 W 19 33 10 18 1005.4 1005.4 6.2
03/07:00pm 13.6 9.8 7.4 66 3.0 W 17 32 9 17 1004.8 1004.8 6.2
03/06:30pm 13.8 9.4 7.6 66 3.0 W 20 43 11 23 1004.2 1004.2 6.2
03/06:00pm 13.6 9.2 9.1 74 2.3 W 22 39 12 21 1003.1 1003.1 6.2
03/05:30pm 13.8 9.4 8.8 72 2.5 W 22 41 12 22 1002.3 1002.3 6.2
03/05:00pm 13.8 9.6 9.6 76 2.2 W 22 39 12 21 1001.4 1001.4 6.2
03/04:30pm 14.4 10.5 10.8 79 1.9 W 22 37 12 20 1000.4 1000.4 6.2
03/04:00pm 14.3 9.3 10.9 80 1.8 W 28 50 15 27 999.5 999.5 6.2
03/03:56pm 14.1 9.1 11.1 82 1.6 W 28 50 15 27 999.4 999.4 6.2
03/03:30pm 14.6 12.5 13.6 94 0.6 W 17 35 9 19 998.7 998.7 6.2
03/03:07pm 14.9 9.6 12.4 85 1.4 WNW 32 63 17 34 998.2 998.2 3.6
03/03:04pm 16.7 10.9 12.7 77 2.2 NW 35 63 19 34 998.0 998.0 0.2
03/03:01pm 16.6 9.2 12.4 76 2.3 NNW 43 63 23 34 996.9 996.9 0.0
03/03:00pm 16.6 9.0 12.4 76 2.3 NNW 44 63 24 34 996.9 996.9 0.0
03/02:32pm 17.8 9.1 11.4 66 3.5 NNW 48 67 26 36 996.6 996.6 0.0
03/02:30pm 17.9 8.8 11.2 65 3.6 NNW 50 67 27 36 996.6 996.6 0.0
03/02:00pm 17.9 9.2 11.2 65 3.7 NNW 48 72 26 39 996.4 996.4 0.0
03/01:30pm 17.8 8.6 10.9 64 3.7 NNW 50 76 27 41 996.2 996.2 0.0
03/01:00pm 18.0 9.2 10.9 63 3.9 NNW 48 74 26 40 996.5 996.5 0.0
03/12:30pm 17.9 9.4 10.5 62 4.0 NNW 46 67 25 36 997.2 997.2 0.0
03/12:00pm 17.2 7.4 10.1 63 3.8 NNW 52 74 28 40 997.6 997.6 0.0
03/11:30am 17.8 8.3 9.9 60 4.2 NNW 50 78 27 42 998.0 998.0 0.0
03/11:00am 18.4 8.9 9.7 57 4.6 NNW 50 70 27 38 998.7 998.7 0.0
03/10:30am 17.4 7.5 9.8 61 4.0 NNW 52 74 28 40 999.2 999.2 0.0
03/10:01am 17.2 7.7 9.9 62 3.8 NNW 50 70 27 38 999.4 999.4 0.0
03/10:00am 17.2 7.8 10.1 63 3.8 NNW 50 67 27 36 999.4 999.4 0.0
03/09:30am 17.4 6.5 9.6 60 4.1 N 57 80 31 43 999.6 999.6 0.0
03/09:13am 17.1 6.5 9.8 62 3.8 N 56 74 30 40 1000.0 1000.0 0.0
03/09:00am 16.9 6.0 9.6 62 3.8 N 57 70 31 38 999.9 999.9 0.0
03/08:30am 16.6 5.9 9.5 63 3.7 NNW 56 76 30 41 1000.1 1000.1 0.0
03/08:23am 16.5 6.1 9.4 63 3.7 NNW 54 72 29 39 1000.2 1000.2 0.0
03/08:00am 16.3 5.0 9.3 63 3.6 N 59 74 32 40 1000.4 1000.4 0.0
03/07:52am 16.2 5.3 9.4 64 3.5 NNW 57 76 31 41 1000.5 1000.5 0.0
03/07:30am 16.0 4.2 9.0 63 3.6 NNW 61 76 33 41 1000.4 1000.4 0.0
03/07:00am 15.8 4.9 9.0 64 3.5 NNW 56 74 30 40 1000.7 1000.7 0.0
03/06:30am 15.9 3.7 8.9 63 3.6 NNW 63 76 34 41 1000.3 1000.3 0.0
03/06:15am 15.8 4.3 8.8 63 3.6 NNW 59 78 32 42 1000.4 1000.4 0.0
03/06:00am 15.9 4.1 8.9 63 3.6 NNW 61 74 33 40 1000.6 1000.6 0.0
03/05:30am 16.0 4.3 9.2 64 3.5 NNW 61 78 33 42 1000.7 1000.7 0.0
03/05:00am 15.8 5.1 9.5 66 3.3 NNW 56 69 30 37 1001.3 1001.3 0.0
03/04:30am 15.7 4.9 9.1 65 3.4 NNW 56 76 30 41 1001.3 1001.3 0.0
03/04:18am 15.8 4.4 9.2 65 3.4 NNW 59 78 32 42 1001.3 1001.3 0.0
03/04:00am 15.8 3.3 9.2 65 3.4 NNW 65 82 35 44 1001.1 1001.1 0.0
03/03:30am 15.7 4.8 8.9 64 3.5 NNW 56 78 30 42 1001.7 1001.7 0.0
03/03:00am 15.9 5.3 8.6 62 3.7 NNW 54 76 29 41 1001.7 1001.7 0.0
03/02:30am 15.9 5.8 8.9 63 3.6 NNW 52 72 28 39 1002.3 1002.3 0.0
03/02:01am 16.1 4.1 8.3 60 4.0 NNW 61 82 33 44 1001.9 1001.9 0.0
03/02:00am 16.1 4.1 8.3 60 4.0 NNW 61 76 33 41 1001.9 1001.9 0.0
03/01:36am 16.2 5.0 8.2 59 4.1 NNW 57 80 31 43 1002.8 1002.8 0.0
03/01:30am 16.1 4.9 8.3 60 4.0 NNW 57 69 31 37 1002.8 1002.8 0.0
03/01:00am 16.2 5.5 7.9 58 4.2 N 54 67 29 36 1003.6 1003.6 0.0
03/12:31am 16.4 4.9 7.3 55 4.5 N 57 76 31 41 1004.0 1004.0 0.0
03/12:30am 16.4 4.6 7.3 55 4.5 N 59 76 32 41 1004.0 1004.0 0.0
03/12:03am 16.3 5.9 7.8 57 4.3 NNW 52 70 28 38 1004.6 1004.6 0.0
03/12:00am 16.3 6.3 7.8 57 4.3 NNW 50 63 27 34 1004.7 1004.7 0.0
 
Date/Time
EST
Temp
°C
App
Temp
°C
Dew
Point
Rel
Hum
%
Delta-T
°C
Wind Press
QNH
hPa
Press
MSL
hPa
Rain
since 9 am
mm
Dir
 
Spd
km/h
Gust
km/h
Spd
kts
Gust
kts
02/11:30pm 16.1 5.8 8.3 60 4.0 NNW 52 65 28 35 1005.1 1005.1 0.0
02/11:13pm 16.3 6.6 7.5 56 4.4 NNW 48 67 26 36 1005.4 1005.4 0.0
02/11:00pm 16.2 5.5 8.2 59 4.1 NNW 54 67 29 36 1005.5 1005.5 0.0
02/10:30pm 16.3 6.8 8.3 59 4.1 NNW 48 61 26 33 1005.9 1005.9 0.0
02/10:00pm 15.5 6.9 8.0 61 3.8 N 43 54 23 29 1006.1 1006.1 0.0
02/09:30pm 15.4 6.7 8.4 63 3.5 NNW 44 52 24 28 1006.7 1006.7 0.0
02/09:00pm 15.6 6.1 8.4 62 3.7 NNW 48 59 26 32 1006.7 1006.7 0.0
02/08:30pm 15.5 7.4 8.7 64 3.5 N 41 54 22 29 1006.9 1006.9 0.0
02/08:00pm 15.3 6.9 8.8 65 3.3 N 43 52 23 28 1007.2 1007.2 0.0
02/07:30pm 15.5 7.0 8.5 63 3.5 N 43 52 23 28 1007.4 1007.4 0.0
02/07:00pm 15.8 6.6 7.8 59 4.0 N 46 57 25 31 1007.3 1007.3 0.0
02/06:30pm 16.0 6.8 8.0 59 4.0 NNW 46 59 25 32 1007.2 1007.2 0.0
02/06:00pm 16.2 7.4 8.2 59 4.1 NNW 44 56 24 30 1007.4 1007.4 0.0
02/05:30pm 16.2 7.8 8.9 62 3.7 NNW 43 52 23 28 1007.3 1007.3 0.0
02/05:00pm 16.2 8.3 9.2 63 3.6 N 41 50 22 27 1007.5 1007.5 0.0
02/04:30pm 16.6 9.8 9.3 62 3.8 NNW 35 48 19 26 1007.8 1007.8 0.0
02/04:00pm 16.1 8.0 8.6 61 3.8 N 41 52 22 28 1007.8 1007.8 0.0
02/03:30pm 16.1 8.0 8.6 61 3.8 NNW 41 50 22 27 1008.1 1008.1 0.0
02/03:00pm 16.9 9.2 8.6 58 4.3 NNW 39 56 21 30 1008.1 1008.1 0.0
02/02:30pm 17.0 10.0 8.4 57 4.4 NNW 35 50 19 27 1008.2 1008.2 0.0
02/02:00pm 16.9 10.3 8.6 58 4.3 NNW 33 48 18 26 1008.6 1008.6 0.0
02/01:30pm 16.6 9.7 8.8 60 4.0 NNW 35 50 19 27 1008.7 1008.7 0.0
02/01:00pm 16.1 8.5 7.6 57 4.3 NNW 37 52 20 28 1009.0 1009.0 0.0
02/12:39pm 16.1 8.6 7.8 58 4.2 NNW 37 57 20 31 1009.4 1009.4 0.0
02/12:30pm 16.1 8.7 8.3 60 4.0 NNW 37 52 20 28 1009.6 1009.6 0.0
02/12:00pm 16.1 9.1 8.3 60 4.0 NNW 35 48 19 26 1010.2 1010.2 0.0
02/11:42am 15.8 9.2 8.5 62 3.7 NNW 33 52 18 28 1010.4 1010.4 0.0
02/11:30am 15.3 8.8 8.1 62 3.6 NNW 32 44 17 24 1010.8 1010.8 0.0
02/11:00am 15.4 8.8 7.9 61 3.8 NNW 32 43 17 23 1011.3 1011.3 0.0
02/10:30am 14.1 8.3 7.9 66 3.1 NNW 28 41 15 22 1011.5 1011.5 0.0
02/10:00am 13.7 8.4 8.5 71 2.6 NNW 26 37 14 20 1012.0 1012.0 0.0
02/09:30am 13.0 6.9 8.3 73 2.3 NNW 30 39 16 21 1012.1 1012.1 0.0
02/09:00am 12.8 6.3 8.3 74 2.2 NNW 32 43 17 23 1012.3 1012.3 0.4
02/08:30am 12.4 5.9 8.1 75 2.1 NNW 32 41 17 22 1012.4 1012.4 0.4
02/08:00am 12.3 5.8 8.2 76 2.0 NNW 32 41 17 22 1012.5 1012.5 0.4
02/07:30am 12.0 5.9 8.3 78 1.8 NNW 30 39 16 21 1012.3 1012.3 0.4
02/07:00am 12.1 6.9 8.8 80 1.6 NNW 26 39 14 21 1012.4 1012.4 0.4
02/06:30am 12.0 7.1 8.5 79 1.7 NNW 24 35 13 19 1012.4 1012.4 0.4
02/06:00am 12.0 6.0 8.8 81 1.6 NNW 30 39 16 21 1012.4 1012.4 0.4
02/05:30am 12.4 7.0 7.9 74 2.2 NNW 26 35 14 19 1012.5 1012.5 0.4
02/05:00am 12.3 8.8 8.8 79 1.7 NNW 17 32 9 17 1012.5 1012.5 0.4
02/04:30am 12.1 9.1 7.8 75 2.1 NW 13 24 7 13 1012.5 1012.5 0.4
02/04:00am 12.4 9.0 7.7 73 2.3 NW 15 28 8 15 1012.5 1012.5 0.4
02/03:30am 12.1 9.5 7.6 74 2.2 NW 11 24 6 13 1012.7 1012.7 0.4
02/03:00am 12.3 9.6 7.4 72 2.4 NW 11 26 6 14 1013.0 1013.0 0.4
02/02:30am 12.2 9.6 7.7 74 2.2 NW 11 30 6 16 1013.1 1013.1 0.4
02/02:00am 12.0 9.4 7.7 75 2.1 NW 11 22 6 12 1013.2 1013.2 0.4
02/01:30am 12.0 9.4 7.7 75 2.1 NW 11 20 6 11 1013.4 1013.4 0.4
02/01:00am 12.0 9.4 7.7 75 2.1 NW 11 20 6 11 1013.8 1013.8 0.4
02/12:30am 12.1 9.6 8.0 76 2.0 NW 11 28 6 15 1014.0 1014.0 0.4
02/12:00am 12.3 9.4 8.2 76 2.0 NW 13 24 7 13 1014.1 1014.1 0.4
 
Date/Time
EST
Temp
°C
App
Temp
°C
Dew
Point
Rel
Hum
%
Delta-T
°C
Wind Press
QNH
hPa
Press
MSL
hPa
Rain
since 9 am
mm
Dir
 
Spd
km/h
Gust
km/h
Spd
kts
Gust
kts
01/11:30pm 12.4 9.5 8.3 76 2.0 WNW 13 22 7 12 1014.3 1014.3 0.4
01/11:00pm 12.4 9.9 8.3 76 2.0 NW 11 26 6 14 1014.3 1014.3 0.4
01/10:30pm 12.3 10.3 8.8 79 1.7 NW 9 20 5 11 1014.3 1014.3 0.4
01/10:00pm 12.4 9.9 8.3 76 2.0 WNW 11 22 6 12 1014.4 1014.4 0.4
01/09:30pm 12.6 9.6 7.9 73 2.3 WNW 13 26 7 14 1014.2 1014.2 0.4
01/09:00pm 12.6 9.6 7.9 73 2.3 WNW 13 30 7 16 1014.0 1014.0 0.4
01/08:30pm 12.9 10.9 8.8 76 2.1 WNW 9 19 5 10 1013.6 1013.6 0.4
01/08:00pm 13.1 10.7 8.8 75 2.2 WNW 11 24 6 13 1013.4 1013.4 0.4
01/07:30pm 13.2 9.7 7.4 68 2.8 WNW 15 28 8 15 1013.0 1013.0 0.4
01/07:00pm 13.3 10.3 7.5 68 2.8 W 13 26 7 14 1012.7 1012.7 0.4
01/06:30pm 13.3 10.1 6.9 65 3.1 W 13 30 7 16 1012.5 1012.5 0.4
01/06:00pm 13.3 9.4 6.9 65 3.1 W 17 30 9 16 1012.2 1012.2 0.4
01/05:30pm 13.0 9.3 8.1 72 2.4 W 17 30 9 16 1011.6 1011.6 0.4
01/05:00pm 13.2 9.1 7.9 70 2.6 W 19 33 10 18 1011.1 1011.1 0.4
01/04:30pm 13.9 10.0 8.5 70 2.7 W 19 37 10 20 1010.6 1010.6 0.4
01/04:00pm 13.3 9.4 8.6 73 2.4 W 19 32 10 17 1010.3 1010.3 0.4
01/03:30pm 13.4 9.3 8.0 70 2.7 W 19 33 10 18 1009.8 1009.8 0.4
01/03:00pm 13.2 9.0 8.3 72 2.4 W 20 33 11 18 1009.4 1009.4 0.4
01/02:30pm 14.1 9.7 8.9 71 2.6 WNW 22 39 12 21 1008.5 1008.5 0.4
01/02:00pm 14.0 10.8 10.0 77 2.1 WNW 17 35 9 19 1008.0 1008.0 0.4
01/01:30pm 12.7 8.6 8.8 77 2.0 W 20 39 11 21 1007.9 1007.9 0.4
01/01:00pm 12.3 8.5 9.7 84 1.3 W 20 35 11 19 1008.0 1008.0 0.4
01/12:30pm 12.7 9.8 9.7 82 1.5 W 15 30 8 16 1007.8 1007.8 0.4
01/12:00pm 12.5 7.0 9.0 79 1.8 W 28 54 15 29 1007.4 1007.4 0.0
01/11:30am 14.7 9.4 9.9 73 2.5 W 28 52 15 28 1006.8 1006.8 0.0
01/11:27am 14.6 9.2 9.6 72 2.6 WNW 28 52 15 28 1006.8 1006.8 0.0
01/11:00am 14.5 10.0 9.9 74 2.4 WNW 24 46 13 25 1006.5 1006.5 0.0
01/10:30am 14.1 9.9 9.9 76 2.2 WNW 22 41 12 22 1006.0 1006.0 0.0
01/10:00am 14.2 10.4 9.8 75 2.3 WNW 20 43 11 23 1005.4 1005.4 0.0
01/09:30am 14.2 10.8 10.4 78 2.0 NW 19 33 10 18 1005.0 1005.0 0.0
01/09:00am 13.4 10.8 10.8 84 1.4 WNW 15 35 8 19 1004.3 1004.3 14.0
01/08:39am 14.4 9.2 10.4 77 2.1 WNW 28 50 15 27 1004.4 1004.4 14.0
01/08:30am 15.1 12.2 10.9 76 2.2 WNW 17 44 9 24 1003.7 1003.6 14.0
01/08:00am 15.3 10.6 13.2 87 1.2 NW 30 57 16 31 1003.1 1003.0 13.8
01/07:51am 15.6 9.8 14.0 90 0.9 NNW 37 57 20 31 1002.6 1002.5 13.8
01/07:30am 15.6 9.5 12.9 84 1.5 NNW 37 50 20 27 1002.5 1002.4 12.8
01/07:00am 15.7 9.6 13.0 84 1.5 NNW 37 48 20 26 1002.3 1002.2 12.8
01/06:30am 15.1 10.4 13.3 89 1.0 N 30 39 16 21 1002.2 1002.1 12.8
01/06:00am 15.2 10.4 13.9 92 0.7 N 32 41 17 22 1002.3 1002.2 12.8
01/05:30am 15.4 10.4 14.1 92 0.7 N 33 41 18 22 1002.4 1002.3 12.8
01/05:00am 15.8 11.1 14.3 91 0.9 NNW 32 41 17 22 1002.4 1002.3 12.8
01/04:30am 15.0 13.4 14.0 94 0.6 NW 15 28 8 15 1001.3 1001.2 12.8
01/04:00am 14.7 13.5 14.1 96 0.3 WNW 13 32 7 17 1002.5 1002.4 10.8
01/03:30am 16.2 15.1 14.4 89 1.0 W 13 32 7 17 1001.6 1001.5 1.8
01/03:00am 19.1 17.5 15.0 77 2.4 NNE 17 24 9 13 1001.5 1001.4 0.0
01/02:30am 18.1 16.1 15.4 84 1.6 NE 20 24 11 13 1002.2 1002.1 0.0
01/02:00am 18.4 17.3 15.3 82 1.8 NNE 15 19 8 10 1003.2 1003.1 0.0
01/01:30am 18.7 16.8 15.2 80 2.1 NNE 19 26 10 14 1004.0 1003.9 0.0
01/01:00am 18.7 16.2 15.2 80 2.1 NNE 22 30 12 16 1004.2 1004.2 0.0
01/12:30am 18.6 15.4 15.3 81 1.9 NNE 26 35 14 19 1004.8 1004.8 0.0
01/12:00am 18.6 17.5 15.3 81 1.9 NNE 15 22 8 12 1006.1 1006.1 0.0
 
Date/Time
EST
Temp
°C
App
Temp
°C
Dew
Point
Rel
Hum
%
Delta-T
°C
Wind Press
QNH
hPa
Press
MSL
hPa
Rain
since 9 am
mm
Dir
 
Spd
km/h
Gust
km/h
Spd
kts
Gust
kts
30/11:30pm 18.9 17.8 15.4 80 2.1 N 15 24 8 13 1007.1 1007.1 0.0
30/11:00pm 18.9 17.5 15.6 81 2.0 NNE 17 24 9 13 1007.9 1007.9 0.0

Other Formats:

Comma delimited format used in spreadsheet applications
http://www.bom.gov.au/fwo/IDV60801/IDV60801.94892.axf

JavaScript Object Notation format (JSON) in row-major order
http://www.bom.gov.au/fwo/IDV60801/IDV60801.94892.json